Location: Krakow
(50.0830°N, 19.9170°E)
Time: 09:33:48
(UTC+02:00)

Vanguard 1 Rocket - Pass Details

Date: 15 December 2023
Orbit: 649 x 4220 km, 34.3° (Epoch: 07 September)

Event Time Altitude Azimuth Distance (km) Brightness Sun altitude
Rises 00:40:55 0° 211° (SSW) 7,962 - -60.2°
Reaches altitude 10° 00:47:00 10° 203° (SSW) 7,211 - -59.7°
Maximum altitude 01:08:08 35° 149° (SSE) 5,452 - -57.6°
Exits shadow 01:10:14 34° 141° (SE) 5,409 11.0 -57.4°
Drops below altitude 10° 01:26:04 10° 94° (E) 6,222 11.9 -55.5°
Sets 01:30:42 0° 86° (E) 6,813 12.3 -55.0°
